Location: Saint-Usage
(47.1052°N, 5.2587°E)
Time: 16:46:47
(UTC+02:00)

X-37B - Pass Details

Date: 02 October 2021
Orbit: 385 x 389 km, 45.0° (Epoch: 17 October)

Event Time Altitude Azimuth Distance (km) Brightness Sun altitude
Exits shadow 05:20:32 20° 121° (ESE) 957 2.9 -24.0°
Drops below altitude 10° 05:21:43 10° 114° (ESE) 1,411 4.0 -23.8°
Sets 05:23:49 0° 109° (ESE) 2,265 5.2 -23.4°
